Flag for Switzerland Weather past 2 weeks in Muttenz, Basel-Land, Switzerland

Now
73 °F

Clear.


Feels Like: 73 °F
Forecast: 72 / 95 °F
Wind: 2 mph from North

Location: Bale-Mulhouse

Current Time: Jul 5, 2015 at 12:39:18 AM

Latest Report: Jul 5, 2015 at 12:00 AM


Visibility: 10 mi

Pressure: 30.09 "Hg

Humidity: 83%

Dew point: 68 °F

Location of MuttenzLocation

Historic Weather in Muttenz — Graph

°F

Muttenz temperature yesterday

Maximum temperature yesterday: 97 °F (at 4:30 PM)
Minimum temperature yesterday: 68 °F (at 2:30 AM)
Average temperature yesterday: 83 °F

Past Weeks' High & Low Weather Summary

 TemperatureHumidityPressure
High97 °F (Jul 2, 3:30 PM)100% (Jun 20, 8:00 AM)30.24 "Hg (Jun 20, 8:00 AM)
Low45 °F (Jun 24, 4:30 AM)26% (Jun 26, 3:00 PM)29.74 "Hg (Jun 22, 9:00 PM)
Average69 °F67%30.11 "Hg
* Reported Jun 19 11:00 PM — Jul 4 11:00 PM, Muttenz, Weather by CustomWeather, © 2015

Note: Actual official high and low records may vary slightly from our data, if they occured in-between our weather recording intervals... More about our weather records

Advertising

Muttenz weather history for previous 24 hours

 ConditionsComfort  
Time TempWeatherWind HumidityBarometerVisibility
11:00 PM
Sat, Jul 4
77 °FClear.2 mph79%30.09 "Hg10 mi
10:30 PM79 °FClear.No wind79%30.09 "Hg10 mi
10:00 PM82 °FSunny.1 mph74%30.09 "Hg10 mi
9:30 PM82 °FSunny.5 mph70%30.09 "Hg10 mi
9:00 PM86 °FPassing clouds.5 mph66%30.09 "HgN/A
8:30 PM90 °FPassing clouds.5 mph55%30.09 "HgN/A
8:00 PM91 °FPassing clouds.5 mph52%30.09 "HgN/A
7:30 PM93 °FScattered clouds.5 mph47%30.09 "HgN/A
7:00 PM95 °FPassing clouds.5 mph39%30.09 "HgN/A
6:30 PM97 °FPassing clouds.3 mph37%30.09 "HgN/A
6:00 PM97 °FScattered clouds.5 mph34%30.12 "HgN/A
5:30 PM97 °FPassing clouds.3 mph34%30.12 "HgN/A
5:00 PM97 °FSunny.2 mph37%30.12 "Hg10 mi
4:30 PM97 °FPassing clouds.3 mph34%30.12 "HgN/A
4:00 PM95 °FPassing clouds.5 mph34%30.12 "HgN/A
3:30 PM95 °FPassing clouds.6 mph34%30.12 "HgN/A
3:00 PM95 °FPassing clouds.3 mph34%30.15 "HgN/A
2:30 PM95 °FPassing clouds.5 mph34%30.15 "HgN/A
2:00 PM93 °FPassing clouds.7 mph34%30.15 "HgN/A
1:30 PM93 °FPassing clouds.5 mph36%30.15 "HgN/A
1:00 PM91 °FPassing clouds.5 mph41%30.18 "HgN/A
12:30 PM90 °FSunny.3 mph43%30.18 "Hg10 mi
12:00 PM90 °FSunny.3 mph43%30.18 "Hg10 mi
11:30 AM88 °FSunny.2 mph49%30.18 "Hg10 mi
11:00 AM88 °FSunny.2 mph43%30.18 "Hg10 mi
10:30 AM86 °FSunny.3 mph49%30.18 "Hg10 mi
10:00 AM84 °FSunny.3 mph48%30.18 "Hg10 mi
9:30 AM82 °FPassing clouds.5 mph55%30.18 "HgN/A
9:00 AM81 °FSunny.3 mph62%30.18 "Hg10 mi
8:30 AM79 °FPassing clouds.5 mph61%30.18 "HgN/A
8:00 AM77 °FPassing clouds.6 mph65%30.18 "HgN/A
7:30 AM75 °FPassing clouds.6 mph74%30.18 "HgN/A
7:00 AM72 °FSunny.6 mph78%30.15 "Hg10 mi
6:30 AM72 °FClear.7 mph78%30.15 "Hg10 mi
6:00 AM70 °FClear.6 mph83%30.15 "Hg10 mi
5:30 AM70 °FPassing clouds.6 mph83%30.15 "HgN/A
5:00 AM72 °FPassing clouds.5 mph83%30.15 "HgN/A
4:30 AM70 °FClear.5 mph88%30.15 "Hg10 mi
4:00 AM70 °FPassing clouds.3 mph83%30.15 "HgN/A
3:30 AM70 °FClear.2 mph83%30.15 "Hg10 mi
3:00 AM70 °FClear.No wind88%30.15 "Hg10 mi
2:30 AM68 °FClear.3 mph94%30.15 "Hg10 mi
2:00 AM70 °FClear.2 mph88%30.15 "Hg10 mi
1:30 AM72 °FClear.2 mph83%30.15 "Hg10 mi
1:00 AM72 °FClear.3 mph83%30.15 "Hg10 mi
12:30 AM73 °FClear.3 mph83%30.15 "Hg10 mi
12:00 AM75 °FClear.3 mph78%30.15 "Hg10 mi
Weather by CustomWeather, © 2015

See weather overviewHow to use our weather pages